Location: Allaines
(49.9632°N, 2.9458°E)
Time: 05:41:31
(UTC+00:00)

FALCON 9 DEB - Pass Details

Date: 09 April 2020
Orbit: 429 x 442 km, 53.0° (Epoch: 29 May)

Event Time Altitude Azimuth Distance (km) Brightness Sun altitude
Rises 21:03:15 0° 259° (W) 2,429 7.4 -21.7°
Reaches altitude 10° 21:05:23 10° 263° (W) 1,560 6.4 -22.0°
Enters shadow 21:08:42 63° 326° (NNW) 499 3.5 -22.3°
